This is the latest recevied weather packets stored in our database for station/object N7WSS. If no packets are shown the sender has not sent any weather packets the latest 10 day(s).
| Time | Temp. | Humidity | Pressure | Rain* | Wind** | Luminosity | Snow |
|---|---|---|---|---|---|---|---|
| 1787860395 | 39.44° C | 29% | 1014 hPa | 0 mm | - | - | - |
| 1787860094 | 38.89° C | 29% | 1014.1 hPa | 0 mm | - | - | - |
| 1787859791 | 38.89° C | 30% | 1014.2 hPa | 0 mm | - | - | - |
| 1787859490 | 38.89° C | 30% | 1014.1 hPa | 0 mm | - | - | - |
| 1787859190 | 38.89° C | 30% | 1014.2 hPa | 0 mm | - | - | - |
| 1787858887 | 38.89° C | 30% | 1014.1 hPa | 0 mm | - | - | - |
| 1787858582 | 37.78° C | 31% | 1014.4 hPa | 0 mm | - | - | - |
| 1787858282 | 37.78° C | 32% | 1014.5 hPa | 0 mm | - | - | - |
| 1787857978 | 37.22° C | 32% | 1014.5 hPa | 0 mm | - | - | - |
| 1787857673 | 37.78° C | 32% | 1014.5 hPa | 0 mm | - | - | - |
| 1787857369 | 37.78° C | 31% | 1014.5 hPa | 0 mm | - | - | - |
| 1787857067 | 38.33° C | 31% | 1014.7 hPa | 0 mm | - | - | - |
| 1787856762 | 37.78° C | 31% | 1014.8 hPa | 0 mm | - | - | - |
| 1787856462 | 38.33° C | 31% | 1014.9 hPa | 0 mm | - | - | - |
| 1787856158 | 37.78° C | 32% | 1014.9 hPa | 0 mm | - | - | - |
| 1787855853 | 37.22° C | 33% | 1015 hPa | 0 mm | - | - | - |
| 1787855553 | 37.22° C | 34% | 1015.1 hPa | 0 mm | - | - | - |
| 1787855248 | 37.22° C | 34% | 1015 hPa | 0 mm | - | - | - |
| 1787854944 | 37.22° C | 34% | 1015.3 hPa | 0 mm | - | - | - |
| 1787854639 | 37.22° C | 34% | 1015.3 hPa | 0 mm | - | - | - |
| 1787854333 | 36.67° C | 35% | 1015.4 hPa | 0 mm | - | - | - |
| 1787854028 | 37.22° C | 34% | 1015.4 hPa | 0 mm | - | - | - |
| 1787853727 | 36.67° C | 35% | 1015.5 hPa | 0 mm | - | - | - |
| 1787853427 | 35.56° C | 37% | 1015.6 hPa | 0 mm | - | - | - |
| 1787853126 | 35.56° C | 38% | 1015.9 hPa | 0 mm | - | - | - |
* Rain latest hour (hover to see other rain measurements)
** Current wind speed in m/s (hover to see current wind gust speed)